Location: Unspecified
(0.0000°N, 0.0000°E)
Time: 05:53:09
(UTC+00:00)

Explorer 7 - Pass Details

Date: 01 October 2020
Orbit: 484 x 678 km, 50.3° (Epoch: 28 October)

Event Time Altitude Azimuth Distance (km) Brightness Sun altitude
Rises 21:34:55 0° 244° (WSW) 2,603 - -56.2°
Reaches altitude 10° 21:37:34 10° 263° (W) 1,746 - -56.9°
Maximum altitude 21:40:24 19° 309° (NW) 1,317 - -57.6°
Drops below altitude 10° 21:43:20 10° 354° (N) 1,818 - -58.3°
Sets 21:46:10 0° 13° (NNE) 2,753 - -59.0°
